Ontario, OR

12:30 PM MDT on May 26, 2018 (GMT -0600)
Ontario Municipal

Weather History for KONO - April, 2013

Change the Weather History Date:

Tuesday, April 2, 2013

  Actual Average Record
Temperature  
Mean Temperature 63 °F 48 °F  
Max Temperature 75 °F 61 °F 82 °F (1990)
Min Temperature 51 °F 34 °F 20 °F (2008)
Degree Days  
Heating Degree Days 2 18  
Month to date heating degree days 12 36  
Since 1 July heating degree days 5150 5336  
Cooling Degree Days 0 0  
Month to date cooling degree days 0 0  
Year to date cooling degree days 0 0  
Growing Degree Days 12 (Base 50)    
Moisture  
Dew Point 36 °F    
Average Humidity 39    
Maximum Humidity 59    
Minimum Humidity 19    
Precipitation  
Precipitation 0.00 in 0.02 in 0.45 in (1993)
Month to date precipitation 0.00 0.05  
Year to date precipitation 1.20 3.04  
Sea Level Pressure  
Sea Level Pressure 30.03 in    
Wind  
Wind Speed 10 mph (WNW)    
Max Wind Speed 20 mph    
Max Gust Speed 25 mph    
Visibility 10 miles    
Events      
T = Trace of Precipitation, MM = Missing Value Source: NWS Daily Summary

Daily Weather History Graph

Daily Weather History Graph

Search for Another Location

Airport or City:

Astronomy

Apr. 02, 2013 Rise Set
Actual Time 7:26 AM MDT 8:16 PM MDT
Civil Twilight 6:57 AM MDT 8:46 PM MDT
Nautical Twilight 6:23 AM MDT 9:20 PM MDT
Astronomical Twilight 5:46 AM MDT 9:57 PM MDT
Moon 2:33 AM MDT (4/2) 12:14 PM MDT (4/2)
Length of Visible Light 13h 48m
Length of Day
12h 49m
Waning Gibbous, 55% of the Moon is Illuminated
Apr 2
Waning Gibbous
Apr 2
Last Quarter
Apr 10
New
Apr 18
First Quarter
Apr 25
Full

Hourly Weather History & Observations

Time (MDT) Temp. Dew Point Humidity Pressure Visibility Wind Dir Wind Speed Gust Speed Precip Events Conditions
12:53 AM 59.0 °F 37.0 °F 44% 29.96 in 10.0 mi NW 17.3 mph 26.5 mph N/A   Clear
1:53 AM 57.9 °F 37.9 °F 47% 29.97 in 10.0 mi NW 15.0 mph - N/A   Clear
2:53 AM 57.0 °F 37.9 °F 49% 29.99 in 10.0 mi NW 17.3 mph 25.3 mph N/A   Clear
3:53 AM 55.9 °F 37.9 °F 51% 29.99 in 10.0 mi NW 16.1 mph - N/A   Clear
4:53 AM 52.0 °F 37.0 °F 57% 30.02 in 10.0 mi WSW 8.1 mph - N/A   Clear
5:53 AM 54.0 °F 37.0 °F 53% 30.02 in 10.0 mi West 13.8 mph - N/A   Clear
6:53 AM 53.1 °F 37.0 °F 55% 30.04 in 10.0 mi West 17.3 mph - N/A   Clear
7:53 AM 52.0 °F 37.0 °F 57% 30.06 in 10.0 mi West 11.5 mph - N/A   Clear
8:53 AM 53.1 °F 39.0 °F 59% 30.09 in 10.0 mi WSW 10.4 mph - N/A   Clear
9:53 AM 59.0 °F 39.0 °F 48% 30.09 in 10.0 mi West 13.8 mph - N/A   Clear
10:53 AM 62.1 °F 37.9 °F 41% 30.09 in 10.0 mi WNW 17.3 mph 23.0 mph N/A   Clear
11:53 AM 64.9 °F 37.0 °F 36% 30.08 in 10.0 mi NW 11.5 mph - N/A   Clear
12:53 PM 68.0 °F 37.9 °F 33% 30.06 in 10.0 mi WNW 9.2 mph - N/A   Clear
1:53 PM 70.0 °F 36.0 °F 29% 30.04 in 10.0 mi SW 12.7 mph 21.9 mph N/A   Clear
2:53 PM 71.1 °F 35.1 °F 27% 30.03 in 10.0 mi West 9.2 mph 16.1 mph N/A   Clear
3:53 PM 73.0 °F 32.0 °F 22% 30.01 in 10.0 mi West 6.9 mph - N/A   Clear
4:53 PM 73.9 °F 30.9 °F 21% 30.00 in 10.0 mi West 6.9 mph - N/A   Clear
5:53 PM 73.0 °F 28.0 °F 19% 29.99 in 10.0 mi West 4.6 mph - N/A   Clear
6:53 PM 73.0 °F 28.0 °F 19% 29.98 in 10.0 mi Calm Calm - N/A   Clear
7:53 PM 70.0 °F 28.9 °F 22% 29.99 in 10.0 mi NNE 3.5 mph - N/A   Clear
8:53 PM 59.0 °F 35.1 °F 41% 30.01 in 10.0 mi NW 4.6 mph - N/A   Clear
9:53 PM 57.9 °F 37.0 °F 46% 30.02 in 10.0 mi NW 10.4 mph - N/A   Clear
10:53 PM 57.9 °F 36.0 °F 44% 30.03 in 10.0 mi North 6.9 mph - N/A   Clear
11:53 PM 57.0 °F 36.0 °F 45% 30.04 in 10.0 mi NW 5.8 mph - N/A   Clear